Regional Weather Roundup
Issued by NWS

Home | Current Version | Previous Version | Graphics & Text | Print | Product List | Glossary On
Versions: 1 2 3 4 5 6 7 8 9 10 11 12 13 14 15 16 17 18 19 20 21 22 23 24 25 26 27 28 29 30 31 32 33 34 35 36 37 38 39 40 41 42 43 44 45 46 47 48 49 50
000
ASUS43 KTOP 211008
RWRKS

WEATHER ROUNDUP FOR KANSAS
NATIONAL WEATHER SERVICE GOODLAND KS
400 AM CST TUE NOV 21 2017

NOTE:  "FAIR" INDICATES FEW OR NO CLOUDS BELOW 12,000 FEET WITH NO
SIGNIFICANT WEATHER AND/OR OBSTRUCTIONS TO VISIBILITY.

KSZ001>006-013>018-027>032-041>047-211100-
NORTHWEST KANSAS

CITY           SKY/WX    TMP DP  RH WIND       PRES   REMARKS
GOODLAND       PTCLDY    43  23  45 W7        29.90R
HAYS           CLOUDY    49  24  37 NW10      29.82R
HILL CITY      PTCLDY    48  23  37 N16       29.86R
RUSSELL        CLOUDY    48  27  44 NW12      29.79R
$$

KSZ061>065-074>080-084>089-211100-
SOUTHWEST KANSAS

CITY           SKY/WX    TMP DP  RH WIND       PRES   REMARKS
DODGE CITY     CLOUDY    45  22  40 NW9       29.83R
ELKHART        CLOUDY    47  22  37 NW9       29.88R
GARDEN CITY    PTCLDY    41  20  43 NW12      29.86R
GREAT BEND     PTCLDY    45  26  47 NW3       29.79R
LIBERAL        CLOUDY    40  20  44 N12       29.85R WCI  33
PRATT          CLOUDY    39  24  54 NW10      29.78S WCI  32
$$

KSZ066>073-081>083-090>101-211100-
SOUTHEAST KANSAS

CITY           SKY/WX    TMP DP  RH WIND       PRES   REMARKS
CHANUTE        MOCLDY    46  32  58 S12       29.79F
COFFEYVILLE    PTCLDY    47  34  60 S9        29.80F
HUTCHINSON     CLOUDY    37  31  78 CALM      29.77R
MEDICINE LODGE   N/A     32  27  81 N5        29.78R
NEWTON         PTCLDY    43  30  60 SW8       29.77R
PARSONS        CLOUDY    46  34  62 S5        29.81F
WICHITA INTL   MOCLDY    38  31  76 S6        29.77S
WICHITA JABRA  PTCLDY    43  31  62 S9        29.77R
WICHITA MCCONL MOCLDY    41  30  64 SW8       29.77S
WINFIELD       CLOUDY    42  32  67 SE5       29.79F
$$

KSZ007>012-019>026-033>040-048>060-102>105-211100-
NORTHEAST KANSAS

CITY           SKY/WX    TMP DP  RH WIND       PRES   REMARKS
CONCORDIA      CLOUDY    47  26  44 NW10      29.81R
EMPORIA        PTCLDY    43  30  60 SW3       29.77R
LAWRENCE       MOCLDY    47  32  56 SW5       29.77S
MANHATTAN      CLOUDY    49  31  49 CALM      29.76R
MARYSVILLE     PTCLDY    34  30  86 N6        29.77R
OLATHE IND     PTCLDY    44  32  62 S8        29.77F
OLATHE EXE     PTCLDY    47  31  53 SW7       29.77S
SALINA         CLOUDY    48  29  47 N3        29.76S
TOPEKA BILLARD PTCLDY    47  32  56 S6        29.76R
TOPEKA FORBES  MOCLDY    43  32  65 S3        29.76S
$$



USA.gov is the U.S. government's official web portal to all federal, state and local government web resources and services.